2024-169E (61193 NORAD) Tracking and Keplerian Element Data

This shows tracking and keplerian element data for the satellite.

Feedback or suggestion? Click here.




ElementValue
Catalog61193
Name2024-169E
Epoch Orbit342
Epoch Day286.87639701
Epoch Year2024
RAAN12.1012
Inclination97.5964
Eccentricity0.0014212
Argument of Perigee201.8431
Mean Anonmoly158.2195
Mean Motion15.11001511
Decay Rate0.00016213
L11 61193U 24169E 24286.87639701 .00016213 00000+0 97094-3 0 9999
L22 61193 97.5964 12.1012 0014212 201.8431 158.2195 15.11001511 3424



Live tracking and technical data element details for 2024-169E (NORAD 61193). 2024-169E can be tracked NOW for your location showing map with azimuth and elevation plus other details from your city location.







IsCatalogInMostPopularTable: catalog: 61193, numindb: 26
Update: records affected: 1



GetName: 61193 2024-169E

Hit Count: updated at: Wed, 04 Dec 2024 08:36:31 GMT